Location: La Pernelle
(49.6188°N, 1.2999°W)
Time: 08:30:06
(UTC+00:00)

DNEPR-1 R/B - Pass Details

Date: 12 June 2021
Orbit: 588 x 1333 km, 64.6° (Epoch: 03 August)

Event Time Altitude Azimuth Distance (km) Brightness Sun altitude
Rises 23:05:08 0° 319° (NW) 2,857 8.1 -16.0°
Reaches altitude 10° 23:07:23 10° 319° (NW) 1,929 7.1 -16.0°
Maximum altitude 23:11:37 88° 232° (SW) 600 3.4 -16.2°
Enters shadow 23:13:52 28° 142° (SE) 1,146 4.4 -16.3°
